User: anonymous   Login
Location: Unspecified
(0.0000°N, 0.0000°E)
Time: 20:06:03
(UTC+00:00)
Language:

TBA - TO BE ASSIGNED - Orbit

View from above orbital plane
View from above orbital plane
View from above satellite
View from above satellite

Ground track
Ground track

The orbit is defined by the following mean orbital elements,

1 67807U          26145.25445031 +.00000000 +00000-0 +39716-3 0 00002
2 67807  97.2865 333.3321 0001710  86.2497 273.8941 15.33454679    01
Epoch (UTC): 25 May 2026 06:06:24
Eccentricity: 0.0001710
inclination: 97.2865°
perigee height: 464 km
apogee height: 467 km
right ascension of ascending node: 333.3321°
argument of perigee: 86.2497°
revolutions per day: 15.33454679
mean anomaly at epoch: 273.8941°

The dashed part of the orbit path shows where the satellite is in the earth's shadow,  

DLR